Weather Roundup
Issued by NWS Chicago, IL

Home | Current Version | Previous Version | Graphics & Text | Print | Product List | Glossary On
Versions: 1 2 3 4 5 6 7 8 9 10 11 12 13 14 15 16 17 18 19 20 21 22 23 24 25 26 27 28 29 30 31 32 33 34 35 36 37 38 39 40 41 42 43 44 45 46 47 48 49 50
000
NZUS59 KLOT 222210
HRRLOT

CHICAGO AREA WEATHER ROUNDUP
NATIONAL WEATHER SERVICE CHICAGO/ROMEOVILLE IL
400 PM CST MON DEC 22 2014

NOTE: "FAIR" INDICATES FEW OR NO CLOUDS BELOW 12,000 FEET WITH NO
SIGNIFICANT WEATHER AND/OR OBSTRUCTIONS TO VISIBILITY.

* THESE STATIONS ARE NOT UNDER NWS QUALITY CONTROL. THEY ALSO MAY NOT
  REPORT WEATHER SUCH AS PRECIPITATION OR FOG.

ILZ005-006-012>014-019>023-222300-
NORTHEAST ILLINOIS

CITY           SKY/WX    TMP DP  RH WIND       PRES   REMARKS
OHARE          LGT RAIN  37  35  92 E10       29.69F FOG
MIDWAY         LGT RAIN  40  38  93 SE13      29.71F FOG
AURORA         LGT RAIN  39  36  89 E16       29.66F FOG
LANSING*       LGT RAIN  38  38  97 SE10      29.71F
JOLIET*        LGT RAIN  38  37  95 SE13G20   29.67F
WAUKEGAN       LGT RAIN  36  34  92 E13       29.71F FOG
DUPAGE AIRPORT LGT RAIN  38  36  92 E10       29.67F FOG
WHEELING       LGT RAIN  37  35  92 E12       29.72F FOG
KANKAKEE*      LGT RAIN  39  39  98 SE9       29.69F
MORRIS*        LGT RAIN  40  40 100 E15G22    29.64F
LEWIS AIRPORT* LGT RAIN  39  39  99 SE15      29.68F
NORTHERLY IS     N/A     37  35  92 E10         N/A
$$

WIZ051-052-058>065-066-070>072-222300-
SOUTHEAST WISCONSIN

CITY           SKY/WX    TMP DP  RH WIND       PRES   REMARKS
MILWAUKEE      LGT RAIN  36  33  89 SE15      29.75F FOG
KENOSHA*       LGT RAIN  36  35  96 E15       29.72F FOG
RACINE*        LGT RAIN  37  34  89 SE13      29.75F FOG
BURLINGTON     MIX PCPN  33  33  99 E13G20    29.70F WCI  24
WAUKESHA       LGT RAIN  34  32  93 E14       29.73F VSB 1   WCI  24
WEST BEND      LGT SNOW  32  32 100 E8        29.75S WCI  25
$$

INZ001>003-010>013-019-020-222300-
NORTHWEST INDIANA

CITY           SKY/WX    TMP DP  RH WIND       PRES   REMARKS
GARY*          LGT RAIN  39  36  87 SE12      29.72F
MICHIGAN CITY* NOT AVBL
RENSSELAER*    NOT AVBL
VALPARAISO     LGT RAIN  38  37  97 E14       29.74F FOG
$$

LMZ740>746-222300-
SOUTHERN LAKE MICHIGAN

STATION/POSITION TIME  SKY/WX   TEMP WIND        PRES    VSBY
                                AIR  DIR/SP/G
                 (UTC)          (F)  (DEG/KT/KT) (MB)    (MI)
HARRISON CRIB    2200            37  120/ 17/ 19   N/A
BURNHAM HARBOR   2200            37  110/  9/ 11   N/A
CALUMET HARBOR   2200            39  110/ 12/ 16 1005.2F
BURNS HARBOR     NOT AVBL
MICHIGAN CITY    NOT AVBL
$$

ABBREVIATIONS USED IN REMARKS
   TC - TEMPERATURE IN CELSIUS
  WCI - WIND CHILL INDEX
   HX - HEAT INDEX
  VSB - VISIBILITY
$$



USA.gov is the U.S. government's official web portal to all federal, state and local government web resources and services.